[[{"header":{"parameterUnit":"m.s-1","parameterCategory":2,"la1":30.2991,"la2":30.254,"lo1":-89.0895,"lo2":-89.0444,"dy":0.0017,"dx":0.0017,"nx":28,"ny":28,"refTime":"2023-10-30T09:00:00:Z","depth":"0","parameterNumber":2,"parameterNumberName":"U-component_of_CURRENTS"},"data":[0,0,0,0,0,0,0,0,0,0,0,0,0,0,0,0,0,0,0,0,0,0,0,0,0,0,0,0,0,0,0,0,0,0,0,0,0,0,0,0,0,0,0,0,0,0,0,0,0,0,0,0,0,0,0,0,0,0,0.4571,0.4572,0,0.4555,0.4554,0.4552,0.4523,0.4523,0.4524,0.4525,0.4431,0.4428,0.4425,0,0,0,0,0,0,0,0,0,0,0,0,0,0.454,0.454,0.4571,0.4572,0.4573,0.4555,0.4554,0.4552,0.4523,0.4523,0.4524,0.4525,0.4432,0.4428,0.4425,0,0,0,0,0,0,0,0,0,0,0,0,0,0.4529,0.454,0.4571,0.4565,0.4566,0.4555,0.4554,0.4552,0.4522,0.4523,0.4524,0.4525,0.4433,0.4429,0.4424,0.4378,0,0,0.441,0.4408,0,0,0,0,0,0,0,0,0.453,0.4529,0.4565,0.4566,0.4566,0.4553,0.4509,0.4494,0.4522,0.4525,0.4525,0.4526,0.4472,0.4465,0.4442,0.4373,0.4369,0.441,0.4407,0.4405,0.4404,0,0,0,0,0,0,0,0.4531,0.4529,0.4551,0.4567,0.4567,0.4553,0.4551,0.4505,0.4482,0.4525,0.4526,0.4545,0.447,0.4447,0.444,0.4368,0.441,0.4406,0.4403,0.4401,0.4318,0.4319,0,0,0,0,0,0,0.456,0.453,0.4552,0.4552,0.4565,0.4554,0.4551,0.4546,0.4485,0.4481,0.4544,0.4544,0.4454,0.4445,0.4437,0.4418,0.4405,0.4401,0.4398,0.4318,0.4318,0.4319,0,0,0,0,0,0,0.4558,0.456,0.4553,0.4553,0.4552,0.4555,0.4548,0.4545,0.4538,0.4502,0.4494,0.4544,0.4455,0.4443,0.4406,0.4413,0.4399,0.4395,0.4317,0.4318,0.4319,0.4356,0,0,0,0,0,0,0.4557,0.4559,0.4558,0.4554,0.4554,0.4564,0.4549,0.4545,0.4554,0.4553,0.4499,0.449,0.4454,0.4413,0.4401,0.4407,0.4391,0.4316,0.4318,0.4319,0.4354,0.4358,0.4361,0,0,0,0,0,0.4555,0.4547,0.4557,0.456,0.4553,0.4567,0.4563,0.456,0.4554,0.4553,0.4513,0.4493,0.4412,0.4409,0.4395,0.44,0.4316,0.4317,0.4318,0.4352,0.4357,0.4361,0,0,0,0,0,0,0.4517,0.4545,0.4555,0.4551,0.4573,0.4567,0.4563,0.4568,0.4533,0.4527,0.4483,0.4471,0.4452,0.4418,0.4416,0.4382,0.4367,0.4365,0.4398,0.4401,0.4405,0.445,0.4387,0,0,0,0,0,0.4517,0.4522,0.4552,0.4549,0.456,0.4564,0.4567,0.4574,0.4556,0.4542,0.451,0.4473,0.4442,0.4417,0.4389,0.4351,0.4368,0.4352,0.4355,0.4358,0.4387,0.4412,0.4421,0.4323,0.4323,0.4323,0,0,0.4506,0.4519,0.4524,0.4544,0.4548,0.4566,0.4563,0.4577,0.4587,0.4535,0.4515,0.4487,0.444,0.4411,0.4398,0.4381,0.4396,0.436,0.4363,0.4391,0.4415,0.4424,0.4433,0.4324,0.4324,0.4324,0,0,0.449,0.4495,0.4502,0.4524,0.4558,0.4566,0.4581,0.459,0.4587,0.4571,0.4546,0.4529,0.4464,0.4445,0.4421,0.4427,0.4425,0.4414,0.445,0.4473,0.4482,0.4489,0.4529,0.454,0.4402,0.4402,0.4402,0,0.4479,0.4489,0.4507,0.4524,0.4546,0.4573,0.4593,0.4592,0.459,0.4587,0.4574,0.4522,0.4486,0.4464,0.4471,0.4438,0.4457,0.4432,0.4479,0.4487,0.4495,0.4534,0.4546,0.4404,0.4404,0.4404,0.4404,0,0.4477,0.4492,0.4496,0.453,0.4551,0.4573,0.4602,0.4609,0.461,0.4615,0.4608,0.4566,0.454,0.4525,0.4494,0.4525,0.4525,0.4492,0.4471,0.4507,0.4545,0.4557,0.4407,0.4406,0.4406,0.4405,0,0,0.4437,0.4489,0.4491,0.4512,0.4563,0.4576,0.4597,0.4625,0.4645,0.4635,0.465,0.4612,0.4611,0.459,0.4559,0.4579,0.4645,0.4562,0.4562,0.4609,0.4717,0.4718,0.4731,0.4617,0.4619,0.462,0.4724,0,0.4436,0.4468,0.4498,0.4531,0.4552,0.4588,0.4611,0.4638,0.4655,0.4674,0.4656,0.4661,0.4627,0.4623,0.4638,0.4655,0.4677,0.4622,0.467,0.4672,0.4675,0.4745,0.4628,0.4711,0.4735,0.4737,0.4738,0,0.4423,0.4451,0.4483,0.454,0.4554,0.4579,0.4627,0.4651,0.469,0.4712,0.4722,0.4718,0.4748,0.4711,0.4769,0.4736,0.474,0.4749,0.4752,0.4756,0.4697,0.4677,0.4731,0.4644,0.4757,0.4755,0.4754,0,0.4379,0.4436,0.446,0.448,0.4549,0.4565,0.4601,0.4653,0.4683,0.4743,0.4791,0.4804,0.4847,0.4846,0.4867,0.4823,0.4946,0.4873,0.4879,0.4879,0.4794,0.4783,0.4777,0.492,0.492,0.4919,0.4919,0,0.4359,0.4379,0.4442,0.4453,0.4492,0.4543,0.4587,0.4638,0.4708,0.4765,0.4809,0.4882,0.4892,0.4945,0.4918,0.4966,0.4984,0.4927,0.4917,0.4803,0.4792,0.4722,0.4666,0.4923,0.4922,0.4922,0.4921,0,0.4306,0.4348,0.438,0.4448,0.447,0.4493,0.4579,0.4612,0.4715,0.4797,0.4825,0.4968,0.5069,0.5069,0.5113,0.5067,0.4953,0.5076,0.496,0.4934,0.4829,0.4779,0.4579,0.4438,0.5097,0.5097,0.5098,0,0.4282,0.4293,0.4359,0.4378,0.441,0.4456,0.4491,0.4592,0.4638,0.4852,0.489,0.5051,0.5142,0.5244,0.5194,0.517,0.4991,0.505,0.4937,0.4851,0.4787,0.4549,0.4426,0.4837,0.4836,0.4835,0.4834,0,0.4241,0.4266,0.4292,0.4327,0.4362,0.4405,0.4466,0.4496,0.463,0.4738,0.4905,0.501,0.5179,0.5145,0.5165,0.5125,0.4835,0.5026,0.4951,0.462,0.4344,0.4194,0.4759,0.4823,0.4824,0.4825,0.4825,0.4826,0.4204,0.4211,0.4239,0.4258,0.4301,0.4321,0.4304,0.4396,0.4463,0.4568,0.4784,0.4881,0.5026,0.5056,0.4992,0.4865,0.4768,0.474,0.4702,0.4481,0.4287,0.4857,0.4895,0.4896,0.4898,0.4899,0.49,0,0.4115,0.4137,0.4166,0.4172,0.416,0.4221,0.4252,0.4204,0.4228,0.4405,0.4519,0.4617,0.4661,0.471,0.4716,0.458,0.4298,0.4462,0.4099,0.4004,0.4552,0.4488,0.4421,0.4421,0.4421,0.4421,0.4421,0.4422,0.4075,0.4045,0.4049,0.4,0.401,0.393,0.3905,0.3887,0.3946,0.397,0.4008,0.4127,0.4367,0.4532,0.4459,0.4349,0.4005,0.3841,0.3775,0.4209,0.423,0.425,0.4178,0.4046,0.4046,0.3061,0.3055,0.3049]},{"header":{"parameterUnit":"m.s-1","parameterCategory":2,"la1":30.2991,"la2":30.254,"lo1":-89.0895,"lo2":-89.0444,"dy":0.0017,"dx":0.0017,"nx":28,"ny":28,"refTime":"2023-10-30T09:00:00:Z","depth":"0","parameterNumber":3,"parameterNumberName":"V-component_of_CURRENTS"},"data":[0,0,0,0,0,0,0,0,0,0,0,0,0,0,0,0,0,0,0,0,0,0,0,0,0,0,0,0,0,0,0,0,0,0,0,0,0,0,0,0,0,0,0,0,0,0,0,0,0,0,0,0,0,0,0,0,0,0,-0.0357,-0.0358,0,-0.0392,-0.0392,-0.0392,-0.0425,-0.0426,-0.0427,-0.0428,-0.0483,-0.0483,-0.0484,0,0,0,0,0,0,0,0,0,0,0,0,0,-0.0299,-0.03,-0.0357,-0.0358,-0.0359,-0.0392,-0.0392,-0.0392,-0.0425,-0.0426,-0.0428,-0.0429,-0.0483,-0.0483,-0.0484,0,0,0,0,0,0,0,0,0,0,0,0,0,-0.0323,-0.03,-0.0357,-0.0384,-0.0387,-0.0392,-0.0392,-0.0392,-0.0425,-0.0426,-0.0428,-0.0429,-0.0482,-0.0483,-0.0484,-0.046,0,0,-0.0487,-0.0487,0,0,0,0,0,0,0,0,-0.0321,-0.0324,-0.0379,-0.0382,-0.0386,-0.0411,-0.0392,-0.0417,-0.0425,-0.0404,-0.0428,-0.043,-0.0463,-0.0466,-0.046,-0.0462,-0.0465,-0.0487,-0.0487,-0.0488,-0.0488,0,0,0,0,0,0,0,-0.032,-0.0323,-0.0365,-0.038,-0.0384,-0.0388,-0.0392,-0.0396,-0.0421,-0.0406,-0.041,-0.0423,-0.0465,-0.046,-0.0462,-0.0466,-0.0487,-0.0487,-0.0488,-0.0488,-0.0479,-0.0478,0,0,0,0,0,0,-0.0327,-0.0321,-0.0364,-0.0367,-0.0363,-0.0388,-0.0393,-0.0397,-0.0421,-0.0427,-0.0422,-0.0425,-0.0457,-0.0461,-0.0464,-0.0433,-0.0488,-0.0488,-0.0489,-0.048,-0.0479,-0.0478,0,0,0,0,0,0,-0.0325,-0.033,-0.0363,-0.035,-0.0355,-0.0388,-0.0392,-0.0397,-0.04,-0.0433,-0.044,-0.0422,-0.0459,-0.0463,-0.0464,-0.0436,-0.0489,-0.0489,-0.0481,-0.048,-0.0479,-0.0373,0,0,0,0,0,0,-0.0323,-0.0328,-0.0322,-0.035,-0.0356,-0.0361,-0.0391,-0.0396,-0.0408,-0.0412,-0.0435,-0.0441,-0.046,-0.0463,-0.0465,-0.0438,-0.049,-0.0482,-0.048,-0.0479,-0.0377,-0.0368,-0.036,0,0,0,0,0,-0.032,-0.0304,-0.0321,-0.0326,-0.035,-0.036,-0.0362,-0.0388,-0.0406,-0.0397,-0.0414,-0.0441,-0.0456,-0.0462,-0.0465,-0.0437,-0.0482,-0.0481,-0.0479,-0.0381,-0.037,-0.036,0,0,0,0,0,0,-0.0266,-0.0307,-0.0327,-0.0321,-0.0341,-0.0369,-0.0358,-0.0384,-0.0387,-0.039,-0.0425,-0.043,-0.0424,-0.0448,-0.0453,-0.0434,-0.0476,-0.0475,-0.0401,-0.0391,-0.0382,-0.0358,-0.0491,0,0,0,0,0,-0.0255,-0.026,-0.0296,-0.0292,-0.0296,-0.0327,-0.0332,-0.0353,-0.0369,-0.0373,-0.0389,-0.0407,-0.0416,-0.0418,-0.0431,-0.0411,-0.0437,-0.04,-0.0392,-0.0384,-0.0368,-0.0388,-0.038,-0.0473,-0.0473,-0.0473,0,0,-0.024,-0.0258,-0.0265,-0.0283,-0.0293,-0.028,-0.0331,-0.0334,-0.0316,-0.0377,-0.0345,-0.0378,-0.0408,-0.0388,-0.0388,-0.0404,-0.037,-0.0382,-0.0375,-0.0363,-0.0386,-0.0376,-0.0368,-0.0472,-0.0472,-0.0472,0,0,-0.0198,-0.0218,-0.0203,-0.0211,-0.023,-0.0245,-0.0247,-0.0269,-0.0266,-0.0256,-0.0293,-0.0306,-0.0317,-0.0324,-0.0333,-0.0286,-0.033,-0.0299,-0.0226,-0.0245,-0.0237,-0.0231,-0.0243,-0.0238,-0.0289,-0.0288,-0.0288,0,-0.0174,-0.0159,-0.0198,-0.0175,-0.017,-0.0225,-0.0194,-0.0194,-0.0213,-0.0198,-0.0235,-0.0248,-0.0281,-0.0252,-0.0242,-0.0264,-0.0285,-0.0258,-0.0232,-0.0226,-0.0221,-0.0236,-0.0232,-0.0283,-0.0284,-0.0284,-0.0285,0,-0.0118,-0.0104,-0.0088,-0.008,-0.0076,-0.0061,-0.0075,-0.0058,-0.0075,-0.0089,-0.0075,-0.012,-0.0132,-0.0146,-0.0179,-0.0153,-0.0182,-0.0223,-0.0252,-0.0205,-0.0224,-0.0222,-0.0275,-0.0277,-0.0279,-0.028,0,0,-0.0067,-0.0053,-0.0046,-0.0017,-0.0023,-0.0008,0.0035,0.0059,0.0101,0.0063,0.0112,0.007,0.0022,0.0008,-0.0039,-0.0055,-0.0045,-0.0116,-0.012,-0.0117,-0.008,-0.0097,-0.0097,-0.0083,-0.0082,-0.0082,-0.0104,0,-0.0005,0.0058,0.0047,0.0115,0.0152,0.0135,0.0182,0.0194,0.0197,0.0232,0.0176,0.0182,0.0089,0.0081,0.0052,-0.0013,-0.0036,-0.0035,-0.0136,-0.0139,-0.015,-0.0094,-0.0054,-0.007,-0.0102,-0.0102,-0.0102,0,0.0064,0.0096,0.0175,0.0229,0.0246,0.0281,0.0357,0.039,0.0413,0.0413,0.0396,0.0336,0.0312,0.0215,0.0128,0.0132,0.0033,-0.003,-0.0034,-0.0082,-0.0151,-0.0126,-0.0066,-0.0278,-0.0099,-0.01,-0.01,0,0.0134,0.0194,0.0264,0.028,0.0328,0.038,0.041,0.045,0.051,0.0525,0.0564,0.0491,0.049,0.0352,0.0203,0.0164,0.011,0.0033,-0.0075,-0.0078,-0.0079,-0.0083,-0.0225,-0.004,-0.004,-0.004,-0.004,0,0.0211,0.0266,0.0307,0.0348,0.0448,0.0456,0.057,0.0593,0.0654,0.0757,0.0656,0.0733,0.0523,0.0458,0.0275,0.0131,0.0157,-0.0041,-0.0077,-0.0041,-0.0041,-0.0257,-0.0398,-0.0041,-0.0041,-0.004,-0.004,0,0.0273,0.0297,0.0382,0.0452,0.0485,0.0558,0.0668,0.0758,0.0795,0.0936,0.0944,0.093,0.086,0.0642,0.0456,0.0261,-0.0028,0.0021,0.0082,0.0053,-0.027,-0.0405,-0.0584,-0.0696,-0.0102,-0.0102,-0.0102,0,0.0306,0.0357,0.0459,0.0525,0.0563,0.067,0.076,0.0821,0.0932,0.1086,0.1177,0.115,0.1197,0.0915,0.0555,0.0241,-0.0,0.0032,-0.0052,-0.0261,-0.0439,-0.0537,-0.0627,-0.0011,-0.001,-0.001,-0.001,0,0.0371,0.0408,0.0484,0.0614,0.0722,0.0845,0.0983,0.1092,0.1213,0.1362,0.1573,0.1629,0.1386,0.1122,0.0651,0.0405,-0.0123,0.0028,-0.02,-0.0381,-0.0484,-0.0616,-0.0029,-0.0007,-0.0007,-0.0007,-0.0007,-0.0008,0.0422,0.0487,0.0594,0.0721,0.0848,0.102,0.1153,0.1336,0.1556,0.1831,0.1879,0.2057,0.1621,0.1016,0.0624,-0.0067,-0.0107,-0.028,-0.0424,-0.0501,-0.0622,-0.0026,-0.0045,-0.0046,-0.0046,-0.0047,-0.0047,0,0.0496,0.0574,0.0694,0.0863,0.102,0.1068,0.1308,0.1479,0.1782,0.2077,0.2299,0.2244,0.1654,0.1018,0.0085,-0.0416,-0.062,-0.0699,-0.0836,-0.0908,-0.037,-0.038,-0.0457,-0.0456,-0.0456,-0.0456,-0.0456,-0.0456,0.0543,0.067,0.0733,0.0985,0.1111,0.134,0.1489,0.1761,0.2013,0.2415,0.2605,0.2702,0.2249,0.0575,-0.0594,-0.089,-0.1239,-0.1304,-0.1519,-0.1164,-0.1136,-0.111,-0.1151,-0.1388,-0.1389,-0.1969,-0.1975,-0.1979]}],[{"header":{"parameterUnit":"m.s-1","parameterCategory":2,"la1":30.2991,"la2":30.254,"lo1":-89.0895,"lo2":-89.0444,"dy":0.0017,"dx":0.0017,"nx":28,"ny":28,"refTime":"2023-10-30T09:00:00:Z","depth":"2","parameterNumber":2,"parameterNumberName":"U-component_of_CURRENTS"},"data":[0,0,0,0,0,0,0,0,0,0,0,0,0,0,0,0,0,0,0,0,0,0,0,0,0,0,0,0,0,0,0,0,0,0,0,0,0,0,0,0,0,0,0,0,0,0,0,0,0,0,0,0,0,0,0,0,0,0,0.3129,0.313,0,0.3172,0.3172,0.3172,0.3187,0.3187,0.3187,0.3188,0.3223,0.3223,0.3224,0,0,0,0,0,0,0,0,0,0,0,0,0,0.3085,0.3085,0.3129,0.313,0.313,0.3172,0.3172,0.3172,0.3187,0.3187,0.3188,0.3188,0.3222,0.3223,0.3224,0,0,0,0,0,0,0,0,0,0,0,0,0,0.3111,0.3085,0.3129,0.3145,0.3147,0.3172,0.3172,0.3172,0.3187,0.3187,0.3188,0.3188,0.3222,0.3223,0.3224,0.3229,0,0,0.3228,0.3229,0,0,0,0,0,0,0,0,0.3109,0.3112,0.3142,0.3144,0.3146,0.3177,0.3169,0.3192,0.3187,0.3169,0.3188,0.3188,0.3208,0.3211,0.3215,0.3231,0.3233,0.3228,0.3229,0.323,0.323,0,0,0,0,0,0,0,0.3107,0.311,0.3143,0.3143,0.3145,0.3159,0.3162,0.3174,0.3185,0.3171,0.3173,0.3182,0.3209,0.3213,0.3216,0.3233,0.3228,0.323,0.323,0.3231,0.3322,0.3323,0,0,0,0,0,0,0.3106,0.3108,0.3142,0.3145,0.3131,0.316,0.3163,0.3164,0.3185,0.3189,0.3182,0.3182,0.3211,0.3214,0.3217,0.3284,0.323,0.3231,0.3232,0.332,0.3322,0.3324,0,0,0,0,0,0,0.3105,0.3108,0.314,0.313,0.3135,0.316,0.3162,0.3165,0.3187,0.3194,0.3197,0.3202,0.3211,0.3215,0.3252,0.3283,0.3232,0.3233,0.3318,0.3321,0.3323,0.3379,0,0,0,0,0,0,0.3103,0.3107,0.3112,0.313,0.3136,0.3168,0.3162,0.3166,0.3193,0.3195,0.3212,0.3215,0.3212,0.3251,0.3254,0.3284,0.3234,0.3316,0.3319,0.3322,0.3375,0.3383,0.339,0,0,0,0,0,0.3101,0.311,0.3112,0.3117,0.314,0.3169,0.3173,0.3189,0.3194,0.3208,0.3228,0.3215,0.3272,0.3253,0.3256,0.3287,0.3315,0.3318,0.3322,0.3372,0.3381,0.339,0,0,0,0,0,0,0.3098,0.3113,0.3116,0.3129,0.3153,0.3173,0.3193,0.3201,0.3227,0.3233,0.3236,0.324,0.3286,0.328,0.3259,0.3324,0.3292,0.3296,0.3328,0.3338,0.3345,0.3363,0.3235,0,0,0,0,0,0.3098,0.3111,0.3127,0.3144,0.3155,0.3176,0.3192,0.3204,0.3227,0.3239,0.3253,0.3272,0.3301,0.3314,0.3332,0.3365,0.3381,0.3388,0.3396,0.3402,0.3421,0.3465,0.3478,0.3336,0.3336,0.3336,0,0,0.31,0.3116,0.3121,0.3146,0.3166,0.3186,0.3187,0.3219,0.3247,0.3239,0.3285,0.3301,0.3317,0.3359,0.3378,0.3359,0.3453,0.3407,0.3412,0.3427,0.347,0.3484,0.3496,0.3339,0.3338,0.3338,0,0,0.3109,0.3129,0.3133,0.3159,0.3193,0.321,0.3223,0.3251,0.3276,0.3316,0.3326,0.3366,0.3393,0.342,0.3435,0.3496,0.3493,0.3497,0.3548,0.359,0.3603,0.3613,0.366,0.3674,0.3497,0.3498,0.3498,0,0.311,0.3124,0.3143,0.3162,0.3192,0.3222,0.3243,0.3276,0.3315,0.3345,0.3338,0.3414,0.3426,0.3494,0.352,0.3514,0.3538,0.3509,0.36,0.3611,0.3621,0.3666,0.3681,0.3501,0.35,0.35,0.35,0,0.3116,0.3139,0.3156,0.3188,0.3217,0.3254,0.3295,0.3336,0.3368,0.3395,0.347,0.3496,0.3541,0.3553,0.3558,0.3641,0.3635,0.3606,0.3576,0.3639,0.3682,0.3697,0.3505,0.3504,0.3503,0.3502,0,0,0.3094,0.3145,0.3157,0.3172,0.3241,0.3259,0.3331,0.3392,0.3443,0.3487,0.3555,0.3614,0.3632,0.3653,0.3668,0.3712,0.3807,0.3697,0.3698,0.3741,0.3913,0.3873,0.3885,0.3791,0.3794,0.3796,0.3918,0,0.3099,0.3128,0.3166,0.3211,0.3225,0.3296,0.3356,0.342,0.3484,0.3559,0.3614,0.368,0.3669,0.3704,0.3749,0.3801,0.3848,0.3777,0.3848,0.3851,0.3806,0.3902,0.3588,0.3667,0.3932,0.3934,0.3936,0,0.3083,0.3114,0.3147,0.3213,0.323,0.3272,0.3381,0.3441,0.3561,0.3612,0.3694,0.3739,0.3843,0.3808,0.3931,0.3888,0.3913,0.3939,0.3943,0.3898,0.3839,0.3646,0.3684,0.3961,0.3959,0.3957,0.3955,0,0.3035,0.3095,0.3123,0.3151,0.3233,0.328,0.3342,0.3457,0.353,0.3663,0.3732,0.3831,0.3911,0.3959,0.4029,0.3989,0.4153,0.4091,0.4078,0.4075,0.382,0.379,0.4169,0.4169,0.4168,0.4168,0.4168,0,0.3014,0.3042,0.3103,0.3128,0.3179,0.3248,0.3337,0.3419,0.3558,0.3641,0.3758,0.3847,0.3956,0.4058,0.4077,0.4147,0.4191,0.4123,0.4115,0.3832,0.3803,0.4056,0.4041,0.4173,0.4172,0.4171,0.417,0,0.2954,0.3,0.3032,0.3121,0.3154,0.3191,0.3333,0.3391,0.3541,0.3664,0.3716,0.3905,0.4044,0.4142,0.425,0.4223,0.4275,0.4274,0.3949,0.3902,0.4153,0.414,0.4278,0.4278,0.4277,0.4277,0.4277,0,0.2923,0.2924,0.3012,0.3031,0.308,0.3155,0.3208,0.3363,0.344,0.3677,0.3727,0.3937,0.4042,0.4224,0.4229,0.4284,0.4322,0.4003,0.3867,0.4192,0.4171,0.4157,0.4145,0.3551,0.3545,0.354,0.3536,0,0.2861,0.2895,0.2932,0.2971,0.3017,0.3072,0.3172,0.3228,0.3405,0.3528,0.3691,0.3807,0.4012,0.3954,0.4058,0.4025,0.397,0.3907,0.4335,0.3581,0.3518,0.3494,0.3502,0.3492,0.3496,0.3499,0.3502,0.3503,0.2816,0.2822,0.2864,0.2889,0.2937,0.297,0.297,0.3082,0.3186,0.3314,0.3521,0.3596,0.3691,0.3712,0.3619,0.3554,0.3822,0.3629,0.3638,0.3654,0.3557,0.3499,0.3451,0.3455,0.3459,0.3462,0.3465,0,0.2727,0.2756,0.2773,0.279,0.277,0.2858,0.2917,0.2881,0.2922,0.3091,0.3213,0.3061,0.3077,0.3158,0.301,0.3034,0.2935,0.2893,0.2725,0.2776,0.2819,0.2671,0.2335,0.233,0.2326,0.2322,0,0,0.2694,0.2667,0.2671,0.2608,0.2622,0.2571,0.2568,0.2547,0.2617,0.2629,0.2669,0.2948,0.3095,0.2676,0.264,0.2453,0.257,0.2352,0.3276,0.313,0.3167,0.3285,0.3123,0,0,0,0,0]},{"header":{"parameterUnit":"m.s-1","parameterCategory":2,"la1":30.2991,"la2":30.254,"lo1":-89.0895,"lo2":-89.0444,"dy":0.0017,"dx":0.0017,"nx":28,"ny":28,"refTime":"2023-10-30T09:00:00:Z","depth":"2","parameterNumber":3,"parameterNumberName":"V-component_of_CURRENTS"},"data":[0,0,0,0,0,0,0,0,0,0,0,0,0,0,0,0,0,0,0,0,0,0,0,0,0,0,0,0,0,0,0,0,0,0,0,0,0,0,0,0,0,0,0,0,0,0,0,0,0,0,0,0,0,0,0,0,0,0,0.0196,0.0196,0,0.0134,0.0133,0.0132,0.0087,0.0086,0.0086,0.0086,0.0,-0.0002,-0.0004,0,0,0,0,0,0,0,0,0,0,0,0,0,0.0222,0.0222,0.0196,0.0196,0.0195,0.0134,0.0133,0.0132,0.0087,0.0086,0.0086,0.0086,0.0001,-0.0001,-0.0004,0,0,0,0,0,0,0,0,0,0,0,0,0,0.019,0.0222,0.0197,0.0166,0.0162,0.0134,0.0133,0.0131,0.0087,0.0086,0.0086,0.0085,0.0002,-0.0001,-0.0004,-0.0014,0,0,-0.0013,-0.0015,0,0,0,0,0,0,0,0,0.0192,0.0189,0.0171,0.0168,0.0164,0.0118,0.011,0.0082,0.0087,0.0114,0.0086,0.0085,0.0039,0.0033,0.0021,-0.0018,-0.0022,-0.0014,-0.0016,-0.0017,-0.0018,0,0,0,0,0,0,0,0.0194,0.0191,0.017,0.017,0.0166,0.0136,0.0132,0.0105,0.0078,0.0112,0.0109,0.0103,0.0036,0.0024,0.0018,-0.0023,-0.0014,-0.0016,-0.0018,-0.0019,-0.0081,-0.0081,0,0,0,0,0,0,0.0207,0.0193,0.0172,0.0169,0.0178,0.0137,0.0131,0.0133,0.0079,0.0071,0.0104,0.0102,0.0029,0.0022,0.0015,0.0009,-0.0017,-0.002,-0.0021,-0.0081,-0.0081,-0.0081,0,0,0,0,0,0,0.0208,0.0206,0.0175,0.018,0.0174,0.0137,0.0139,0.0132,0.012,0.0073,0.0065,0.0099,0.0028,0.0019,-0.0005,0.0005,-0.0021,-0.0024,-0.0081,-0.0081,-0.0081,-0.001,0,0,0,0,0,0,0.0209,0.0207,0.021,0.0181,0.0174,0.0167,0.0139,0.0131,0.0117,0.0114,0.0067,0.0058,0.0027,-0.0001,-0.0008,-0.0,-0.0026,-0.0081,-0.0081,-0.0081,-0.0012,-0.0007,-0.0003,0,0,0,0,0,0.0211,0.0222,0.0211,0.0208,0.0181,0.0168,0.0162,0.0133,0.0118,0.0119,0.0085,0.006,-0.0004,-0.0003,-0.0012,-0.0004,-0.0082,-0.0081,-0.0081,-0.0014,-0.0008,-0.0003,0,0,0,0,0,0,0.0234,0.0218,0.0205,0.021,0.0194,0.0161,0.0159,0.0138,0.0112,0.0108,0.0062,0.0052,0.0033,0.0004,0.0006,-0.0022,-0.0047,-0.0049,0.0006,0.0012,0.0017,0.0042,-0.0029,0,0,0,0,0,0.0242,0.0246,0.0224,0.0227,0.0224,0.0192,0.0181,0.0164,0.0138,0.0125,0.0092,0.0056,0.0027,0.0012,-0.0019,-0.0032,-0.0062,-0.0034,-0.0029,-0.0025,-0.0011,-0.0052,-0.0049,-0.0079,-0.0079,-0.0079,0,0,0.0252,0.0243,0.0244,0.0232,0.0217,0.0222,0.0185,0.0178,0.0181,0.0121,0.0113,0.0072,0.0026,0.001,-0.0001,-0.0012,-0.0033,-0.0024,-0.002,-0.0009,-0.0051,-0.0048,-0.0046,-0.0079,-0.0079,-0.0079,0,0,0.0279,0.0268,0.0283,0.0276,0.0261,0.0245,0.0247,0.022,0.0207,0.019,0.0149,0.0117,0.0072,0.0045,0.0024,0.0037,-0.0007,0.0024,0.0071,0.0031,0.0034,0.0035,0.0003,0.0001,0.0028,0.0028,0.0028,0,0.029,0.0309,0.0284,0.0299,0.0303,0.0261,0.0284,0.0265,0.0231,0.0227,0.0198,0.0133,0.009,0.0075,0.0077,0.005,0.0021,0.0055,0.0039,0.004,0.0041,0.0006,0.0004,0.0032,0.0031,0.0031,0.003,0,0.0333,0.0346,0.0356,0.0363,0.0363,0.0375,0.0354,0.035,0.0323,0.0297,0.0272,0.0208,0.0173,0.0149,0.0115,0.0103,0.0079,0.0049,0.0029,0.0048,0.001,0.0006,0.0036,0.0035,0.0034,0.0033,0,0,0.0365,0.0384,0.0387,0.041,0.0403,0.0412,0.0423,0.0422,0.0437,0.038,0.0389,0.0318,0.0277,0.0251,0.02,0.0161,0.0132,0.0114,0.011,0.0091,0.0049,0.0021,0.0013,0.0098,0.0098,0.0098,0.0022,0,0.0407,0.0457,0.0451,0.05,0.0529,0.0508,0.0528,0.0518,0.0493,0.0488,0.0414,0.0392,0.0318,0.0303,0.0252,0.0167,0.0125,0.0156,0.0025,0.0022,0.0002,0.0008,0.0039,-0.0027,0.0017,0.0016,0.0016,0,0.0453,0.0484,0.0546,0.0588,0.06,0.062,0.0653,0.0666,0.0641,0.0621,0.0577,0.0511,0.0452,0.0382,0.0246,0.027,0.017,0.0094,0.0088,0.0037,-0.0014,-0.0041,-0.0037,0.0008,0.0009,0.001,0.001,0,0.0501,0.0549,0.0608,0.0622,0.0661,0.0689,0.0707,0.0705,0.074,0.0707,0.0719,0.0616,0.0585,0.0444,0.0279,0.0262,0.0127,0.0081,-0.0039,-0.0043,-0.0053,-0.0057,-0.0017,-0.0017,-0.0016,-0.0016,-0.0016,0,0.0554,0.0598,0.0638,0.0673,0.0755,0.0753,0.0829,0.0831,0.0851,0.0909,0.0795,0.0811,0.0599,0.0491,0.0321,0.0138,0.0155,-0.0024,-0.0063,-0.0029,-0.0029,-0.0028,-0.0029,-0.0019,-0.0018,-0.0018,-0.0017,0,0.0599,0.0623,0.0698,0.0755,0.0784,0.0843,0.0926,0.0978,0.0983,0.1057,0.1055,0.0961,0.0821,0.0602,0.0378,0.021,0.0024,-0.0049,0.0009,-0.0022,-0.0133,-0.0128,-0.0193,-0.0194,-0.0196,-0.0197,-0.0198,0,0.0627,0.0673,0.0765,0.0823,0.0854,0.0942,0.1011,0.1046,0.1114,0.116,0.1207,0.1092,0.1038,0.0693,0.0371,0.0069,0.0026,-0.0113,-0.015,-0.0119,-0.015,-0.0144,-0.0138,-0.0137,-0.0138,-0.0138,-0.0138,0,0.0688,0.0719,0.0783,0.0904,0.0988,0.1097,0.1195,0.1276,0.1338,0.1396,0.1453,0.1412,0.1094,0.0782,0.0355,0.0149,-0.0067,-0.013,-0.0108,-0.0097,-0.0073,-0.0101,-0.0096,-0.0141,-0.0141,-0.0141,-0.0141,-0.014,0.0735,0.0789,0.0876,0.0992,0.11,0.1241,0.134,0.1449,0.1579,0.1682,0.1637,0.1586,0.1233,0.0689,0.0311,-0.0092,-0.0072,-0.0218,-0.0214,-0.0211,-0.019,-0.0169,-0.0252,-0.0252,-0.0252,-0.0253,-0.0253,0,0.0788,0.0852,0.0958,0.1099,0.1223,0.1277,0.146,0.1557,0.1718,0.1802,0.1842,0.1515,0.1163,0.0752,0.0155,-0.0197,-0.0217,-0.031,-0.0259,-0.0253,-0.0249,-0.0229,-0.0302,-0.0304,-0.0305,-0.0306,0,0,0.0819,0.092,0.0972,0.1178,0.1285,0.1465,0.1578,0.1717,0.1817,0.1893,0.1869,0.1804,0.1303,0.0864,0.0382,0.0034,-0.0027,-0.0031,0.0049,0.0173,0.0181,-0.0154,-0.0111,0,0,0,0,0]}],[{"header":{"parameterUnit":"m.s-1","parameterCategory":2,"la1":30.2991,"la2":30.254,"lo1":-89.0895,"lo2":-89.0444,"dy":0.0017,"dx":0.0017,"nx":28,"ny":28,"refTime":"2023-10-30T09:00:00:Z","depth":"4","parameterNumber":2,"parameterNumberName":"U-component_of_CURRENTS"},"data":[0,0,0,0,0,0,0,0,0,0,0,0,0,0,0,0,0,0,0,0,0,0,0,0,0,0,0,0,0,0,0,0,0,0,0,0,0,0,0,0,0,0,0,0,0,0,0,0,0,0,0,0,0,0,0,0,0,0,0.1918,0.1919,0,0.2027,0.2029,0.203,0.2113,0.2114,0.2115,0.2115,0.2238,0.224,0.2243,0,0,0,0,0,0,0,0,0,0,0,0,0,0.1783,0.1785,0.1918,0.1919,0.1921,0.2027,0.2029,0.203,0.2113,0.2114,0.2115,0.2116,0.2237,0.224,0.2243,0,0,0,0,0,0,0,0,0,0,0,0,0,0.1861,0.1786,0.1918,0.1975,0.1981,0.2027,0.2029,0.2031,0.2113,0.2114,0.2115,0.2116,0.2236,0.224,0.2243,0.2243,0,0,0.2255,0.2257,0,0,0,0,0,0,0,0,0.1857,0.1866,0.1965,0.1971,0.1978,0.2058,0.2026,0.2102,0.2112,0.2062,0.2115,0.2117,0.2178,0.2187,0.2204,0.2248,0.2254,0.2255,0.2258,0.2259,0.226,0,0,0,0,0,0,0,0.1851,0.1862,0.1961,0.1967,0.1975,0.1996,0.2009,0.2041,0.2112,0.2067,0.2073,0.2086,0.2182,0.22,0.2208,0.2255,0.2255,0.2258,0.2261,0.2262,0.2435,0.2438,0,0,0,0,0,0,0.1838,0.1857,0.1957,0.1964,0.192,0.1998,0.2012,0.2031,0.2112,0.2125,0.2085,0.2089,0.2193,0.2203,0.2212,0.2332,0.2259,0.2263,0.2265,0.2433,0.2436,0.2438,0,0,0,0,0,0,0.1834,0.1846,0.1953,0.1913,0.1928,0.1999,0.202,0.2032,0.2096,0.2125,0.2139,0.214,0.2195,0.2207,0.2285,0.2333,0.2264,0.2268,0.243,0.2434,0.2437,0.2498,0,0,0,0,0,0,0.183,0.1844,0.1875,0.1912,0.193,0.2006,0.2019,0.2034,0.2099,0.2108,0.2177,0.2187,0.2196,0.228,0.2289,0.2337,0.2271,0.2427,0.2432,0.2436,0.2493,0.2503,0.2511,0,0,0,0,0,0.1825,0.1853,0.1876,0.189,0.1964,0.2008,0.202,0.2073,0.2101,0.2134,0.2188,0.2187,0.2314,0.2285,0.2295,0.2345,0.2425,0.2431,0.2436,0.2488,0.2501,0.2511,0,0,0,0,0,0,0.1815,0.1865,0.1891,0.1937,0.1983,0.2023,0.2063,0.2097,0.2166,0.2189,0.2216,0.223,0.2316,0.2324,0.2291,0.2409,0.237,0.2377,0.2407,0.2418,0.2427,0.2432,0.2274,0,0,0,0,0,0.1824,0.1861,0.1908,0.1949,0.1975,0.2029,0.2063,0.21,0.2152,0.2186,0.2235,0.2288,0.2338,0.2374,0.2414,0.2478,0.2488,0.2518,0.2527,0.2535,0.2548,0.2597,0.2611,0.2456,0.2456,0.2456,0,0,0.1829,0.1865,0.1887,0.1951,0.1993,0.2038,0.2054,0.2117,0.2171,0.2187,0.2288,0.2326,0.2363,0.2438,0.2477,0.2456,0.2588,0.2542,0.2548,0.2557,0.2604,0.2619,0.2632,0.2459,0.2459,0.2458,0,0,0.1842,0.1894,0.1926,0.197,0.2041,0.2073,0.21,0.2169,0.2223,0.2307,0.2338,0.2408,0.2484,0.2522,0.2547,0.2634,0.2635,0.2653,0.2708,0.2755,0.2768,0.2779,0.2818,0.2832,0.2658,0.2658,0.2658,0,0.1855,0.1901,0.1944,0.1989,0.2034,0.2093,0.2142,0.2199,0.229,0.2338,0.2351,0.2487,0.2521,0.2609,0.2648,0.2655,0.2681,0.2658,0.2766,0.2777,0.2788,0.2825,0.284,0.2662,0.2661,0.2661,0.266,0,0.1879,0.1937,0.1963,0.204,0.2091,0.2147,0.2219,0.2292,0.236,0.2411,0.2528,0.258,0.2659,0.2684,0.2698,0.2799,0.2793,0.2769,0.2732,0.2807,0.2841,0.2856,0.2667,0.2665,0.2664,0.2663,0,0,0.1855,0.1961,0.1975,0.2021,0.213,0.2165,0.2268,0.2364,0.2437,0.2528,0.2623,0.2718,0.2756,0.2789,0.2819,0.2869,0.2971,0.2865,0.2865,0.2894,0.3084,0.2893,0.2891,0.2969,0.2972,0.2975,0.3079,0,0.1872,0.1949,0.2008,0.2095,0.2143,0.2236,0.2319,0.2416,0.2509,0.2613,0.269,0.2789,0.2792,0.285,0.2902,0.2962,0.3012,0.2945,0.3015,0.3017,0.2831,0.2901,0.2983,0.309,0.3093,0.3095,0.3097,0,0.1874,0.1931,0.2016,0.2128,0.216,0.2228,0.2371,0.2458,0.2608,0.2684,0.2792,0.2855,0.2977,0.2953,0.3086,0.3049,0.3081,0.3107,0.3111,0.292,0.2853,0.2999,0.3123,0.3121,0.3119,0.3117,0.3115,0,0.1816,0.1933,0.2002,0.2043,0.2179,0.2251,0.2339,0.2487,0.2576,0.2749,0.283,0.2953,0.3047,0.3107,0.318,0.3152,0.33,0.3255,0.3109,0.3097,0.3209,0.3196,0.3336,0.3336,0.3335,0.3335,0.3335,0,0.1794,0.185,0.1987,0.2023,0.2114,0.223,0.2351,0.2457,0.2625,0.2719,0.2871,0.2953,0.3096,0.3191,0.3221,0.3213,0.3335,0.3133,0.3112,0.3233,0.3221,0.3219,0.3205,0.3339,0.3338,0.3337,0.3337,0,0.1714,0.1806,0.1888,0.2038,0.209,0.2162,0.2349,0.2427,0.2609,0.2743,0.2809,0.3003,0.312,0.3227,0.3339,0.3252,0.3268,0.3232,0.3378,0.3361,0.3023,0.3011,0.3067,0.3061,0.3056,0.3052,0.3048,0,0.1675,0.1714,0.1875,0.1925,0.2003,0.2129,0.221,0.24,0.2488,0.2734,0.278,0.2974,0.3074,0.3091,0.3205,0.3246,0.3208,0.3186,0.3077,0.3022,0.2998,0.2993,0.2987,0.3041,0.3039,0.3038,0.3037,0,0.1599,0.1676,0.1743,0.1847,0.1939,0.2023,0.2162,0.2207,0.2417,0.2599,0.2691,0.2761,0.289,0.297,0.3036,0.305,0.3178,0.3133,0.3142,0.304,0.2991,0.297,0.2971,0.302,0.3022,0.3024,0.3025,0,0.1545,0.157,0.1669,0.1745,0.1846,0.1888,0.1976,0.2079,0.2185,0.2453,0.2469,0.2675,0.2852,0.287,0.2922,0.2934,0.2881,0.2765,0.2792,0.2812,0.2679,0.2576,0.2471,0,0,0,0,0,0.148,0.1492,0.1556,0.1621,0.1714,0.1773,0.1925,0.2021,0.2216,0.222,0.2342,0.2446,0.2533,0.2643,0.2606,0.2809,0.289,0.2751,0.277,0.2925,0.2945,0.281,0,0,0,0,0,0,0.1432,0.1486,0.1509,0.15,0.1522,0.1602,0.1691,0.1825,0.1849,0.2059,0.2134,0.2286,0.2426,0.2533,0.2556,0.2587,0.2545,0.2881,0.2874,0.2914,0.2932,0.2947,0.2816,0,0,0,0,0]},{"header":{"parameterUnit":"m.s-1","parameterCategory":2,"la1":30.2991,"la2":30.254,"lo1":-89.0895,"lo2":-89.0444,"dy":0.0017,"dx":0.0017,"nx":28,"ny":28,"refTime":"2023-10-30T09:00:00:Z","depth":"4","parameterNumber":3,"parameterNumberName":"V-component_of_CURRENTS"},"data":[0,0,0,0,0,0,0,0,0,0,0,0,0,0,0,0,0,0,0,0,0,0,0,0,0,0,0,0,0,0,0,0,0,0,0,0,0,0,0,0,0,0,0,0,0,0,0,0,0,0,0,0,0,0,0,0,0,0,0.0225,0.0225,0,0.0186,0.0186,0.0185,0.0162,0.0162,0.0162,0.0161,0.0101,0.0099,0.0098,0,0,0,0,0,0,0,0,0,0,0,0,0,0.024,0.024,0.0225,0.0225,0.0224,0.0186,0.0186,0.0185,0.0162,0.0162,0.0162,0.0161,0.0101,0.0099,0.0097,0,0,0,0,0,0,0,0,0,0,0,0,0,0.0221,0.024,0.0225,0.0208,0.0206,0.0187,0.0186,0.0185,0.0162,0.0162,0.0161,0.0161,0.0102,0.0099,0.0097,0.0085,0,0,0.009,0.0089,0,0,0,0,0,0,0,0,0.0222,0.022,0.0211,0.0209,0.0207,0.0179,0.0169,0.0151,0.0162,0.0178,0.0161,0.0161,0.0125,0.0121,0.0114,0.0082,0.008,0.009,0.0088,0.0087,0.0087,0,0,0,0,0,0,0,0.0223,0.0221,0.0209,0.0211,0.0208,0.0189,0.0187,0.0165,0.0152,0.0177,0.0175,0.0171,0.0124,0.0116,0.0112,0.0079,0.009,0.0088,0.0086,0.0086,0.0036,0.0036,0,0,0,0,0,0,0.0231,0.0223,0.0211,0.0208,0.0215,0.0189,0.0186,0.0188,0.0153,0.0148,0.0172,0.0171,0.012,0.0115,0.011,0.0106,0.0087,0.0085,0.0084,0.0036,0.0036,0.0036,0,0,0,0,0,0,0.0232,0.0231,0.0212,0.0215,0.0211,0.019,0.0191,0.0187,0.0183,0.0149,0.0143,0.0172,0.012,0.0113,0.0096,0.0103,0.0084,0.0082,0.0036,0.0036,0.0036,0.009,0,0,0,0,0,0,0.0232,0.0231,0.0236,0.0215,0.0211,0.0208,0.0191,0.0187,0.0181,0.0179,0.0147,0.0141,0.0119,0.01,0.0094,0.0099,0.008,0.0035,0.0036,0.0036,0.0088,0.0092,0.0096,0,0,0,0,0,0.0233,0.0243,0.0237,0.0235,0.0219,0.0209,0.0205,0.0188,0.0181,0.0183,0.0161,0.0142,0.0096,0.0098,0.0091,0.0096,0.0035,0.0036,0.0036,0.0087,0.0092,0.0096,0,0,0,0,0,0,0.0252,0.0241,0.0234,0.024,0.0228,0.0205,0.0207,0.0193,0.0177,0.0177,0.0144,0.0137,0.0124,0.0101,0.0104,0.0081,0.0062,0.0061,0.0103,0.0108,0.0111,0.013,0.0078,0,0,0,0,0,0.0259,0.0264,0.0248,0.0253,0.025,0.0229,0.0223,0.0212,0.0195,0.0188,0.0165,0.014,0.0118,0.0107,0.0084,0.0073,0.0044,0.007,0.0074,0.0077,0.0087,0.0045,0.0046,0.0036,0.0036,0.0036,0,0,0.0267,0.0262,0.0265,0.0257,0.0247,0.0251,0.0226,0.0223,0.0226,0.0183,0.0182,0.0152,0.0117,0.0105,0.0097,0.0088,0.0064,0.0077,0.0081,0.0089,0.0046,0.0047,0.0048,0.0036,0.0036,0.0036,0,0,0.0287,0.0283,0.0294,0.029,0.0281,0.0269,0.0271,0.0253,0.0247,0.0237,0.0208,0.0184,0.0152,0.013,0.0114,0.0122,0.0084,0.0113,0.0148,0.0107,0.0108,0.0108,0.007,0.0067,0.0115,0.0116,0.0116,0,0.0295,0.031,0.0295,0.0305,0.0311,0.0282,0.0298,0.0286,0.0264,0.0262,0.0244,0.0196,0.0165,0.015,0.0152,0.0132,0.0103,0.0137,0.0113,0.0112,0.0112,0.0073,0.0068,0.0118,0.0118,0.0118,0.0117,0,0.0323,0.0337,0.0345,0.0351,0.0353,0.0362,0.0348,0.0347,0.0333,0.0314,0.0296,0.025,0.0223,0.0205,0.0181,0.0165,0.0144,0.0123,0.0105,0.0116,0.0074,0.0069,0.0122,0.0121,0.012,0.012,0,0,0.034,0.0361,0.0365,0.0384,0.0383,0.039,0.0399,0.0399,0.041,0.0372,0.0378,0.0327,0.0298,0.0277,0.0239,0.0203,0.0168,0.0168,0.0164,0.0137,0.008,0.0058,0.0049,0.0142,0.0141,0.0141,0.0052,0,0.0368,0.0406,0.0407,0.0446,0.0468,0.0458,0.0475,0.0469,0.0452,0.0448,0.0393,0.0379,0.0326,0.0317,0.0271,0.0198,0.0156,0.0194,0.0067,0.0064,0.0049,0.0043,0.0139,0.0047,0.0046,0.0045,0.0044,0,0.0395,0.0421,0.047,0.051,0.0519,0.0538,0.0567,0.0578,0.0559,0.0546,0.0512,0.0465,0.0413,0.0366,0.024,0.0268,0.0183,0.0117,0.0111,0.0071,0.0032,0.0032,0.0033,0.0034,0.0035,0.0035,0.0036,0,0.0421,0.0464,0.0512,0.0525,0.0562,0.0589,0.0609,0.0609,0.0636,0.0612,0.0618,0.0535,0.0506,0.0388,0.0248,0.0244,0.0105,0.0079,-0.0024,-0.0027,-0.0004,-0.0003,-0.0013,-0.0013,-0.0013,-0.0012,-0.0012,0,0.0451,0.0488,0.0534,0.0561,0.0629,0.0636,0.0698,0.0703,0.0721,0.0755,0.0676,0.0672,0.051,0.0409,0.0272,0.0109,0.0117,-0.0016,-0.0051,0.002,0.0024,-0.0009,-0.0007,-0.0016,-0.0015,-0.0014,-0.0014,0,0.047,0.0498,0.0559,0.0617,0.0646,0.0696,0.0775,0.0813,0.0821,0.0864,0.0863,0.0777,0.0639,0.0465,0.027,0.0148,-0.0012,-0.0074,0.0022,-0.0006,-0.0123,-0.0117,-0.0195,-0.0197,-0.0198,-0.0199,-0.02,0,0.0482,0.0518,0.0607,0.0656,0.0688,0.0767,0.0826,0.0866,0.0911,0.0925,0.0948,0.0835,0.075,0.0471,0.0271,0.0002,-0.0042,-0.0129,-0.0135,-0.0116,-0.0142,-0.0134,-0.0127,-0.0202,-0.0202,-0.0203,-0.0203,0,0.0508,0.0543,0.0596,0.07,0.0775,0.0866,0.0949,0.0993,0.1039,0.1044,0.1018,0.087,0.071,0.0477,0.0264,0.007,-0.0075,-0.0143,-0.0142,-0.0148,-0.0125,-0.0148,-0.0139,-0.0207,-0.0207,-0.0206,-0.0206,0,0.053,0.0569,0.0645,0.0737,0.0839,0.0937,0.098,0.1036,0.1087,0.1097,0.1082,0.091,0.081,0.0512,0.0319,0.012,0.0062,-0.0009,-0.0016,-0.0013,0.0057,0.0114,0.0078,0,0,0,0,0,0.0546,0.0593,0.0676,0.0779,0.0881,0.0947,0.1053,0.1086,0.113,0.1124,0.111,0.0961,0.0672,0.0548,0.0347,0.0271,0.0013,0.0025,-0.0075,-0.0232,-0.0227,-0.0178,0,0,0,0,0,0,0.0556,0.0631,0.0672,0.0803,0.0877,0.0999,0.1072,0.1102,0.1102,0.1109,0.0965,0.0895,0.0617,0.0787,0.0338,0.0277,0.0181,-0.0107,-0.0112,-0.0235,-0.023,-0.0226,-0.0175,0,0,0,0,0]}]]